• en Belgique
  • Liste des pays
  • À 7 jours
  • Température de l'eau
  • Carte satellitaire
  • Carte météo
  • Widgets météo
  • user-avatar
    Se connecter

    Météo par heure à Oran

    Ce jour, 17 Août, Jeudi

    Heure Température Précipitation Vent Pression Humidité
    00:00 +29°C° 0 mm 1 m/s 753 mmHg 71%
    01:00 +29°C° 0 mm 1 m/s 753 mmHg 73%
    02:00 +28°C° 0 mm 1 m/s 753 mmHg 76%
    03:00 +28°C° 0 mm 2 m/s 753 mmHg 78%
    04:00 +28°C° 0 mm 2 m/s 753 mmHg 79%
    05:00 +28°C° 0 mm 2 m/s 753 mmHg 81%
    06:00 +27°C° 0 mm 2 m/s 753 mmHg 82%
    07:00 +29°C° 0 mm 2 m/s 753 mmHg 74%
    08:00 +30°C° 0 mm 2 m/s 753 mmHg 65%
    09:00 +31°C° 0 mm 2 m/s 754 mmHg 57%
    10:00 +34°C° 0 mm 3 m/s 754 mmHg 51%
    11:00 +35°C° 0 mm 3 m/s 753 mmHg 46%
    12:00 +37°C° 0 mm 4 m/s 753 mmHg 40%
    13:00 +37°C° 0 mm 4 m/s 753 mmHg 40%
    14:00 +37°C° 0 mm 5 m/s 753 mmHg 40%
    15:00 +37°C° 0 mm 5 m/s 752 mmHg 40%
    16:00 +36°C° 0 mm 5 m/s 752 mmHg 42%
    17:00 +35°C° 0 mm 5 m/s 752 mmHg 45%
    18:00 +35°C° 0 mm 5 m/s 752 mmHg 48%
    19:00 +34°C° 0 mm 4 m/s 752 mmHg 51%
    20:00 +33°C° 0 mm 4 m/s 752 mmHg 55%
    21:00 +31°C° 0 mm 3 m/s 753 mmHg 58%
    22:00 +31°C° 0 mm 3 m/s 753 mmHg 60%
    23:00 +30°C° 0 mm 3 m/s 752 mmHg 62%

    Demain, 18 Août, Vendredi

    Heure Température Précipitation Vent Pression Humidité
    00:00 +30°C° 0 mm 2 m/s 752 mmHg 64%
    01:00 +29°C° 0 mm 2 m/s 752 mmHg 68%
    02:00 +29°C° 0 mm 2 m/s 752 mmHg 71%
    03:00 +28°C° 0 mm 2 m/s 752 mmHg 74%
    04:00 +28°C° 0 mm 2 m/s 752 mmHg 75%
    05:00 +28°C° 0 mm 2 m/s 752 mmHg 76%
    06:00 +28°C° 0 mm 2 m/s 752 mmHg 78%
    07:00 +29°C° 0 mm 2 m/s 752 mmHg 70%
    08:00 +30°C° 0 mm 2 m/s 752 mmHg 62%
    09:00 +32°C° 0 mm 1 m/s 752 mmHg 53%
    10:00 +34°C° 0 mm 2 m/s 752 mmHg 48%
    11:00 +36°C° 0 mm 2 m/s 752 mmHg 42%
    12:00 +37°C° 0 mm 3 m/s 751 mmHg 37%
    13:00 +37°C° 0 mm 3 m/s 751 mmHg 37%
    14:00 +37°C° 0 mm 4 m/s 751 mmHg 38%
    15:00 +38°C° 0 mm 4 m/s 750 mmHg 39%
    16:00 +37°C° 0 mm 4 m/s 750 mmHg 40%
    17:00 +36°C° 0 mm 3 m/s 750 mmHg 42%
    18:00 +35°C° 0 mm 3 m/s 750 mmHg 44%
    19:00 +34°C° 0 mm 2 m/s 751 mmHg 46%
    20:00 +34°C° 0 mm 2 m/s 751 mmHg 48%
    21:00 +32°C° 0 mm 2 m/s 751 mmHg 51%
    22:00 +32°C° 0 mm 2 m/s 751 mmHg 52%
    23:00 +31°C° 0 mm 1 m/s 751 mmHg 54%

    Après-demain, 19 Août, Samedi

    Heure Température Précipitation Vent Pression Humidité
    00:00 +31°C° 0 mm 1 m/s 751 mmHg 56%
    01:00 +30°C° 0 mm 1 m/s 751 mmHg 58%
    02:00 +29°C° 0 mm 1 m/s 751 mmHg 60%
    03:00 +29°C° 0 mm 1 m/s 751 mmHg 62%
    04:00 +29°C° 0 mm 2 m/s 751 mmHg 64%
    05:00 +28°C° 0 mm 2 m/s 751 mmHg 65%
    06:00 +28°C° 0 mm 2 m/s 751 mmHg 66%
    07:00 +30°C° 0 mm 3 m/s 751 mmHg 59%
    08:00 +31°C° 0 mm 3 m/s 752 mmHg 51%
    09:00 +34°C° 0 mm 4 m/s 752 mmHg 44%
    10:00 +35°C° 0 mm 4 m/s 752 mmHg 39%
    11:00 +37°C° 0 mm 5 m/s 752 mmHg 34%
    12:00 +39°C° 0 mm 5 m/s 752 mmHg 30%
    13:00 +39°C° 0 mm 6 m/s 752 mmHg 31%
    14:00 +39°C° 0 mm 7 m/s 751 mmHg 33%
    15:00 +39°C° 0 mm 7 m/s 751 mmHg 35%
    16:00 +38°C° 0 mm 7 m/s 751 mmHg 39%
    17:00 +36°C° 0 mm 7 m/s 751 mmHg 42%
    18:00 +35°C° 0 mm 7 m/s 751 mmHg 46%
    19:00 +34°C° 0 mm 7 m/s 752 mmHg 50%
    20:00 +33°C° 0 mm 7 m/s 752 mmHg 54%
    21:00 +32°C° 0 mm 7 m/s 753 mmHg 58%
    22:00 +32°C° 0 mm 6 m/s 753 mmHg 60%
    23:00 +30°C° 0 mm 6 m/s 753 mmHg 63%

    20 Août, Dimanche

    Heure Température Précipitation Vent Pression Humidité
    00:00 +30°C° 0 mm 6 m/s 753 mmHg 65%
    01:00 +29°C° 0 mm 5 m/s 753 mmHg 67%
    02:00 +29°C° 0 mm 5 m/s 752 mmHg 69%
    03:00 +29°C° 0 mm 5 m/s 752 mmHg 72%
    04:00 +28°C° 0 mm 5 m/s 752 mmHg 73%
    05:00 +28°C° 0 mm 5 m/s 753 mmHg 74%
    06:00 +28°C° 0 mm 5 m/s 753 mmHg 76%
    07:00 +29°C° 0 mm 5 m/s 753 mmHg 69%
    08:00 +32°C° 0 mm 5 m/s 753 mmHg 63%
    09:00 +33°C° 0 mm 5 m/s 754 mmHg 56%
    10:00 +34°C° 0 mm 5 m/s 753 mmHg 50%
    11:00 +36°C° 0 mm 6 m/s 753 mmHg 45%
    12:00 +39°C° 0 mm 6 m/s 753 mmHg 39%
    13:00 +39°C° 0 mm 7 m/s 753 mmHg 39%
    14:00 +39°C° 0 mm 7 m/s 752 mmHg 38%
    15:00 +40°C° 0 mm 8 m/s 752 mmHg 38%
    16:00 +39°C° 0 mm 8 m/s 752 mmHg 40%
    17:00 +38°C° 0 mm 7 m/s 752 mmHg 42%
    18:00 +36°C° 0 mm 7 m/s 752 mmHg 44%
    19:00 +35°C° 0 mm 6 m/s 752 mmHg 47%
    20:00 +34°C° 0 mm 6 m/s 752 mmHg 50%
    21:00 +33°C° 0 mm 5 m/s 753 mmHg 53%
    22:00 +32°C° 0 mm 5 m/s 753 mmHg 56%
    23:00 +32°C° 0 mm 5 m/s 753 mmHg 58%

    21 Août, Lundi

    Heure Température Précipitation Vent Pression Humidité
    00:00 +30°C° 0 mm 4 m/s 753 mmHg 61%
    01:00 +30°C° 0 mm 4 m/s 753 mmHg 64%
    02:00 +29°C° 0 mm 4 m/s 752 mmHg 66%
    03:00 +28°C° 0 mm 4 m/s 752 mmHg 69%
    04:00 +28°C° 0 mm 4 m/s 752 mmHg 71%
    05:00 +28°C° 0 mm 3 m/s 753 mmHg 72%
    06:00 +28°C° 0 mm 3 m/s 753 mmHg 74%
    07:00 +29°C° 0 mm 3 m/s 753 mmHg 68%
    08:00 +30°C° 0 mm 3 m/s 753 mmHg 62%
    09:00 +31°C° 0 mm 3 m/s 753 mmHg 56%
    10:00 +33°C° 0 mm 4 m/s 753 mmHg 50%
    11:00 +35°C° 0 mm 5 m/s 753 mmHg 45%
    12:00 +36°C° 0 mm 5 m/s 753 mmHg 39%
    13:00 +36°C° 0 mm 5 m/s 752 mmHg 37%
    14:00 +38°C° 0 mm 6 m/s 752 mmHg 36%
    15:00 +38°C° 0 mm 6 m/s 752 mmHg 34%
    16:00 +36°C° 0 mm 6 m/s 752 mmHg 35%
    17:00 +35°C° 0 mm 6 m/s 752 mmHg 36%
    18:00 +35°C° 0 mm 5 m/s 752 mmHg 37%
    19:00 +34°C° 0 mm 5 m/s 752 mmHg 40%
    20:00 +33°C° 0 mm 4 m/s 752 mmHg 42%
    21:00 +32°C° 0 mm 4 m/s 753 mmHg 45%
    22:00 +30°C° 0 mm 4 m/s 753 mmHg 47%
    23:00 +30°C° 0 mm 3 m/s 752 mmHg 50%

    22 Août, Mardi

    Heure Température Précipitation Vent Pression Humidité
    00:00 +29°C° 0 mm 3 m/s 752 mmHg 53%
    01:00 +29°C° 0 mm 3 m/s 752 mmHg 56%
    02:00 +28°C° 0 mm 3 m/s 752 mmHg 59%
    03:00 +27°C° 0 mm 3 m/s 752 mmHg 62%
    04:00 +27°C° 0 mm 2 m/s 752 mmHg 62%
    05:00 +27°C° 0 mm 2 m/s 752 mmHg 63%
    06:00 +27°C° 0 mm 2 m/s 752 mmHg 63%
    07:00 +28°C° 0 mm 2 m/s 752 mmHg 55%
    08:00 +30°C° 0 mm 2 m/s 752 mmHg 47%
    09:00 +31°C° 0 mm 2 m/s 752 mmHg 39%
    10:00 +34°C° 0 mm 3 m/s 752 mmHg 34%
    11:00 +36°C° 0 mm 4 m/s 752 mmHg 28%
    12:00 +37°C° 0 mm 4 m/s 751 mmHg 23%
    13:00 +37°C° 0 mm 5 m/s 751 mmHg 23%
    14:00 +39°C° 0 mm 5 m/s 750 mmHg 22%
    15:00 +39°C° 0 mm 6 m/s 750 mmHg 22%
    16:00 +37°C° 0 mm 5 m/s 750 mmHg 24%
    17:00 +37°C° 0 mm 5 m/s 750 mmHg 25%
    18:00 +36°C° 0 mm 5 m/s 750 mmHg 27%
    19:00 +35°C° 0 mm 5 m/s 750 mmHg 29%
    20:00 +34°C° 0 mm 4 m/s 751 mmHg 32%
    21:00 +33°C° 0 mm 4 m/s 751 mmHg 34%
    22:00 +33°C° 0 mm 4 m/s 751 mmHg 35%
    23:00 +33°C° 0 mm 3 m/s 750 mmHg 37%
    Voir plus